Radiation Dose at Monitoring Post of Fukushima Daini Nuclear Power Station
Date,Time,MP-1(microSv/h),MP-2(microSv/h),MP-3(microSv/h),MP-4(microSv/h),MP-5(microSv/h),MP-6(microSv/h),MP-7(microSv/h),Wind Direction,Wind Velocity(m/s),Rain
2015/06/21,00:00,0.513,0.294,0.528,0.479,0.458,0.237,0.207,south,1.7,No
2015/06/21,00:10,0.509,0.293,0.535,0.476,0.457,0.235,0.207,south-southwest,2.2,No
2015/06/21,00:20,0.510,0.293,0.527,0.479,0.463,0.236,0.207,south-southwest,3.9,Yes
2015/06/21,00:30,0.511,0.292,0.534,0.476,0.456,0.236,0.207,southwest,5.0,No
2015/06/21,00:40,0.508,0.294,0.532,0.479,0.461,0.236,0.207,southwest,3.9,No
2015/06/21,00:50,0.511,0.294,0.530,0.474,0.455,0.237,0.206,southwest,2.4,Yes
2015/06/21,01:00,0.508,0.295,0.531,0.479,0.461,0.235,0.207,south-southwest,2.6,Yes
2015/06/21,01:10,0.513,0.293,0.527,0.476,0.457,0.235,0.206,south-southwest,3.5,No
2015/06/21,01:20,0.509,0.294,0.534,0.477,0.458,0.234,0.206,south-southwest,3.6,No
2015/06/21,01:30,0.509,0.292,0.527,0.477,0.460,0.236,0.206,southwest,3.1,No
2015/06/21,01:40,0.512,0.294,0.535,0.475,0.457,0.235,0.205,southwest,2.7,No
2015/06/21,01:50,0.507,0.294,0.529,0.480,0.463,0.236,0.207,southwest,3.2,No
2015/06/21,02:00,0.514,0.293,0.530,0.476,0.459,0.235,0.205,southwest,3.2,No
2015/06/21,02:10,0.508,0.294,0.531,0.480,0.462,0.236,0.206,south-southwest,3.3,No
2015/06/21,02:20,0.512,0.292,0.530,0.475,0.459,0.236,0.207,southwest,4.2,No
2015/06/21,02:30,0.508,0.294,0.534,0.479,0.460,0.235,0.207,south-southwest,3.4,No
2015/06/21,02:40,0.511,0.293,0.529,0.478,0.461,0.236,0.206,south-southwest,3.9,No
2015/06/21,02:50,0.512,0.294,0.534,0.477,0.457,0.235,0.208,south-southwest,4.1,No
2015/06/21,03:00,0.508,0.292,0.530,0.480,0.461,0.234,0.206,south-southwest,4.2,No
2015/06/21,03:10,0.514,0.294,0.530,0.475,0.457,0.236,0.207,south-southwest,3.7,No
2015/06/21,03:20,0.510,0.293,0.534,0.479,0.463,0.236,0.205,south-southwest,3.9,No
2015/06/21,03:30,0.513,0.293,0.530,0.476,0.458,0.235,0.207,south-southwest,3.5,No
2015/06/21,03:40,0.511,0.293,0.536,0.479,0.461,0.236,0.206,southwest,3.8,No
2015/06/21,03:50,0.511,0.293,0.528,0.476,0.461,0.236,0.207,southwest,3.9,No
2015/06/21,04:00,0.513,0.294,0.532,0.478,0.458,0.235,0.206,southwest,4.1,No
2015/06/21,04:10,0.508,0.293,0.530,0.479,0.463,0.237,0.208,southwest,3.0,No
2015/06/21,04:20,0.514,0.295,0.532,0.477,0.456,0.236,0.206,south-southwest,3.2,No
2015/06/21,04:30,0.508,0.294,0.532,0.478,0.462,0.235,0.208,southwest,2.9,No
2015/06/21,04:40,0.513,0.295,0.531,0.476,0.457,0.236,0.207,west-southwest,1.8,No
2015/06/21,04:50,0.509,0.293,0.535,0.481,0.463,0.236,0.208,west,1.4,No
2015/06/21,05:00,0.510,0.296,0.528,0.475,0.457,0.236,0.208,west,1.0,No
2015/06/21,05:10,0.514,0.294,0.534,0.482,0.458,0.235,0.207,northwest,0.6,No
2015/06/21,05:20,0.508,0.294,0.532,0.479,0.461,0.236,0.206,-,CALM,No
2015/06/21,05:30,0.514,0.294,0.531,0.478,0.458,0.236,0.208,-,CALM,No
2015/06/21,05:40,0.509,0.293,0.534,0.478,0.464,0.237,0.207,-,CALM,No
2015/06/21,05:50,0.513,0.296,0.527,0.475,0.456,0.236,0.207,north,1.0,No
2015/06/21,06:00,0.512,0.292,0.534,0.481,0.462,0.236,0.208,north-northeast,1.1,No
2015/06/21,06:10,0.508,0.294,0.529,0.476,0.461,0.236,0.206,north-northeast,0.7,No
2015/06/21,06:20,0.515,0.293,0.532,0.481,0.455,0.236,0.208,north-northeast,1.1,No
2015/06/21,06:30,0.508,0.293,0.532,0.477,0.462,0.236,0.208,northeast,1.6,No
2015/06/21,06:40,0.512,0.295,0.529,0.476,0.459,0.236,0.208,northeast,1.4,No
2015/06/21,06:50,0.514,0.294,0.535,0.482,0.459,0.238,0.207,north-northeast,0.9,No
2015/06/21,07:00,0.508,0.294,0.531,0.479,0.463,0.236,0.207,north-northeast,1.6,No
2015/06/21,07:10,0.515,0.297,0.528,0.479,0.459,0.236,0.210,northeast,1.9,No
2015/06/21,07:20,0.511,0.293,0.533,0.483,0.458,0.237,0.208,north-northeast,1.6,No
2015/06/21,07:30,0.508,0.291,0.532,0.475,0.463,0.236,0.206,north-northeast,1.4,No
2015/06/21,07:40,0.517,0.292,0.527,0.474,0.458,0.237,0.206,north-northeast,1.3,No
2015/06/21,07:50,0.513,0.296,0.529,0.481,0.457,0.236,0.208,east-northeast,2.4,No
2015/06/21,08:00,0.508,0.295,0.533,0.480,0.465,0.235,0.208,east-northeast,2.2,No
2015/06/21,08:10,0.514,0.294,0.532,0.475,0.462,0.238,0.208,east-northeast,2.1,No
2015/06/21,08:20,0.514,0.293,0.528,0.473,0.458,0.238,0.206,east-northeast,2.3,No
2015/06/21,08:30,0.511,0.292,0.528,0.472,0.457,0.236,0.206,east-northeast,2.4,No
2015/06/21,08:40,0.507,0.292,0.525,0.472,0.455,0.236,0.206,east-northeast,2.8,No
2015/06/21,08:50,0.509,0.292,0.525,0.475,0.455,0.236,0.206,northeast,3.1,No
2015/06/21,09:00,0.514,0.292,0.536,0.480,0.464,0.237,0.207,northeast,3.4,No
2015/06/21,09:10,0.512,0.291,0.535,0.480,0.463,0.238,0.207,northeast,2.7,No
2015/06/21,09:20,0.510,0.292,0.531,0.479,0.463,0.237,0.206,northeast,3.3,No
2015/06/21,09:30,0.508,0.296,0.528,0.477,0.460,0.237,0.206,northeast,2.2,No
2015/06/21,09:40,0.509,0.297,0.527,0.477,0.459,0.235,0.206,south-southeast,1.0,No
2015/06/21,09:50,0.507,0.296,0.533,0.476,0.459,0.237,0.206,south-southeast,2.1,No
2015/06/21,10:00,0.513,0.294,0.538,0.477,0.458,0.237,0.205,south,4.1,No
2015/06/21,10:10,0.516,0.293,0.534,0.475,0.458,0.237,0.205,south,7.0,No
2015/06/21,10:20,0.515,0.294,0.530,0.475,0.463,0.236,0.206,south,7.8,No
2015/06/21,10:30,0.511,0.293,0.529,0.479,0.465,0.239,0.207,south,7.6,No
2015/06/21,10:40,0.511,0.293,0.532,0.484,0.462,0.237,0.208,south,8.3,No
2015/06/21,10:50,0.509,0.292,0.536,0.483,0.461,0.237,0.208,south,8.6,No
2015/06/21,11:00,0.510,0.295,0.536,0.481,0.460,0.236,0.206,south,10.0,No
2015/06/21,11:10,0.514,0.298,0.533,0.479,0.458,0.237,0.207,south,10.0,No
2015/06/21,11:20,0.517,0.296,0.529,0.478,0.458,0.238,0.207,south,11.1,No
2015/06/21,11:30,0.516,0.296,0.528,0.478,0.464,0.239,0.207,south-southeast,10.0,No
2015/06/21,11:40,0.514,0.295,0.530,0.476,0.466,0.238,0.209,south,10.2,No
2015/06/21,11:50,0.513,0.294,0.531,0.476,0.467,0.238,0.209,south,10.5,No
2015/06/21,12:00,0.510,0.294,0.530,0.485,0.463,0.237,0.207,south,10.8,No
2015/06/21,12:10,0.510,0.293,0.538,0.485,0.461,0.237,0.208,south,11.0,No
2015/06/21,12:20,0.509,0.293,0.535,0.482,0.459,0.239,0.210,south,11.0,No
2015/06/21,12:30,0.513,0.293,0.533,0.478,0.465,0.237,0.209,south,11.3,No
2015/06/21,12:40,0.519,0.296,0.532,0.477,0.466,0.238,0.208,south,11.8,No
2015/06/21,12:50,0.517,0.298,0.532,0.483,0.465,0.237,0.208,south,12.8,No
2015/06/21,13:00,0.514,0.297,0.530,0.486,0.462,0.237,0.209,south,11.4,No
2015/06/21,13:10,0.511,0.295,0.530,0.484,0.460,0.237,0.210,south,11.4,No
2015/06/21,13:20,0.513,0.293,0.529,0.481,0.459,0.239,0.208,south,11.7,No
2015/06/21,13:30,0.519,0.294,0.538,0.480,0.458,0.239,0.206,south,10.8,No
2015/06/21,13:40,0.519,0.294,0.538,0.477,0.463,0.237,0.208,south,11.2,No
2015/06/21,13:50,0.513,0.297,0.535,0.486,0.467,0.238,0.210,south,10.7,No
2015/06/21,14:00,0.510,0.299,0.533,0.488,0.463,0.238,0.208,south,9.7,No
2015/06/21,14:10,0.520,0.296,0.532,0.485,0.461,0.240,0.208,south,11.3,No
2015/06/21,14:20,0.519,0.295,0.539,0.480,0.460,0.237,0.210,south,9.9,No
2015/06/21,14:30,0.513,0.297,0.537,0.482,0.466,0.238,0.209,south,9.6,No
2015/06/21,14:40,0.516,0.298,0.534,0.486,0.467,0.238,0.207,south,9.9,No
2015/06/21,14:50,0.520,0.295,0.536,0.481,0.464,0.239,0.210,south,8.8,No
2015/06/21,15:00,0.514,0.294,0.542,0.479,0.461,0.237,0.209,south,9.5,No
2015/06/21,15:10,0.512,0.298,0.537,0.486,0.471,0.238,0.208,south,10.0,No
2015/06/21,15:20,0.520,0.297,0.534,0.484,0.466,0.238,0.210,south,9.4,No
2015/06/21,15:30,0.516,0.295,0.540,0.479,0.462,0.238,0.209,south-southwest,8.8,No
2015/06/21,15:40,0.515,0.297,0.537,0.486,0.468,0.238,0.208,south-southwest,9.3,No
2015/06/21,15:50,0.521,0.298,0.534,0.486,0.465,0.239,0.210,south-southwest,6.7,No
2015/06/21,16:00,0.519,0.296,0.540,0.481,0.461,0.237,0.211,south-southwest,7.3,No
2015/06/21,16:10,0.513,0.295,0.538,0.484,0.467,0.239,0.208,south,6.7,No
2015/06/21,16:20,0.517,0.297,0.533,0.486,0.467,0.238,0.209,south-southwest,7.3,No
2015/06/21,16:30,0.520,0.296,0.541,0.483,0.462,0.238,0.210,south,7.6,Yes
2015/06/21,16:40,0.515,0.297,0.539,0.485,0.470,0.241,0.210,south,7.2,Yes
2015/06/21,16:50,0.519,0.298,0.536,0.487,0.465,0.240,0.211,south,7.2,Yes
2015/06/21,17:00,0.518,0.296,0.542,0.484,0.464,0.240,0.209,south,6.4,Yes
2015/06/21,17:10,0.517,0.298,0.536,0.489,0.468,0.239,0.212,south,5.4,No
2015/06/21,17:20,0.521,0.296,0.539,0.483,0.463,0.238,0.210,south,5.0,No
2015/06/21,17:30,0.515,0.297,0.541,0.486,0.469,0.241,0.210,south,4.6,No
2015/06/21,17:40,0.517,0.298,0.534,0.487,0.466,0.239,0.210,south,4.7,No
2015/06/21,17:50,0.518,0.296,0.542,0.483,0.465,0.239,0.210,south,4.8,No
2015/06/21,18:00,0.514,0.297,0.536,0.489,0.468,0.239,0.211,south,4.9,Yes
2015/06/21,18:10,0.519,0.297,0.533,0.483,0.462,0.238,0.210,south,4.1,No
2015/06/21,18:20,0.517,0.296,0.541,0.484,0.467,0.239,0.211,south,3.7,No
2015/06/21,18:30,0.516,0.297,0.535,0.487,0.464,0.238,0.210,south,3.9,No
2015/06/21,18:40,0.518,0.296,0.538,0.481,0.463,0.239,0.211,south,4.3,No
2015/06/21,18:50,0.512,0.297,0.537,0.487,0.466,0.239,0.210,south,5.0,No
2015/06/21,19:00,0.518,0.296,0.532,0.483,0.461,0.238,0.209,south,4.8,No
2015/06/21,19:10,0.518,0.297,0.542,0.484,0.467,0.240,0.212,south,4.9,No
2015/06/21,19:20,0.514,0.296,0.534,0.487,0.463,0.238,0.208,south,5.3,No
2015/06/21,19:30,0.520,0.295,0.539,0.481,0.464,0.240,0.211,south-southwest,5.5,No
2015/06/21,19:40,0.515,0.297,0.539,0.488,0.466,0.238,0.210,south-southwest,5.3,No
2015/06/21,19:50,0.517,0.296,0.534,0.483,0.463,0.239,0.210,south-southwest,5.3,No
2015/06/21,20:00,0.518,0.297,0.539,0.481,0.468,0.240,0.209,south-southwest,5.9,No
2015/06/21,20:10,0.513,0.296,0.536,0.486,0.463,0.238,0.210,south,5.1,No
2015/06/21,20:20,0.521,0.297,0.535,0.482,0.466,0.239,0.210,south,5.6,No
2015/06/21,20:30,0.514,0.297,0.539,0.487,0.465,0.240,0.210,south-southwest,5.4,Yes
2015/06/21,20:40,0.517,0.295,0.533,0.483,0.463,0.239,0.211,south-southwest,5.4,Yes
2015/06/21,20:50,0.519,0.298,0.542,0.484,0.467,0.239,0.209,south-southwest,4.8,Yes
2015/06/21,21:00,0.515,0.296,0.537,0.487,0.462,0.239,0.211,south-southwest,5.0,Yes
2015/06/21,21:10,0.520,0.298,0.536,0.483,0.465,0.241,0.210,southwest,5.0,Yes
2015/06/21,21:20,0.518,0.297,0.542,0.487,0.466,0.241,0.212,south-southwest,4.7,Yes
2015/06/21,21:30,0.518,0.297,0.535,0.485,0.464,0.240,0.210,south-southwest,5.0,Yes
2015/06/21,21:40,0.518,0.299,0.541,0.484,0.469,0.240,0.212,south-southwest,4.2,Yes
2015/06/21,21:50,0.516,0.296,0.538,0.488,0.463,0.239,0.211,south-southwest,3.9,Yes
2015/06/21,22:00,0.522,0.299,0.537,0.482,0.467,0.241,0.211,south-southwest,3.9,Yes
2015/06/21,22:10,0.514,0.296,0.541,0.489,0.462,0.239,0.211,south-southwest,3.3,Yes
2015/06/21,22:20,0.520,0.299,0.535,0.484,0.466,0.239,0.211,south-southwest,3.8,Yes
2015/06/21,22:30,0.519,0.296,0.541,0.486,0.465,0.239,0.210,south-southwest,4.5,Yes
2015/06/21,22:40,0.516,0.297,0.536,0.486,0.463,0.240,0.210,south-southwest,4.6,No
2015/06/21,22:50,0.520,0.298,0.538,0.485,0.466,0.239,0.210,south-southwest,3.6,No
2015/06/21,23:00,0.514,0.295,0.537,0.486,0.462,0.239,0.210,south-southwest,3.6,Yes
2015/06/21,23:10,0.519,0.298,0.534,0.484,0.468,0.240,0.211,south-southwest,3.5,Yes
2015/06/21,23:20,0.518,0.296,0.540,0.488,0.463,0.239,0.211,south-southwest,3.0,No
2015/06/21,23:30,0.517,0.298,0.534,0.483,0.464,0.240,0.210,south-southwest,3.1,No
2015/06/21,23:40,0.519,0.297,0.539,0.483,0.466,0.240,0.209,south-southwest,3.2,No
2015/06/21,23:50,0.513,0.297,0.537,0.485,0.461,0.239,0.210,south,3.6,No
